Wind_Speed
17 16 16 16 15 14 13 12 11 12 11 11 9 10 10 10 10 9 8 8 8 9 10 11 12 12 12 12 12 12 13 14 14 14 13 14 14 15 15 14 15 15 16
16 16 16 16 14 13 13 13 12 12 12 10 10 10 9 9 9 9 9 8 8 9 10 10 11 11 12 12 12 12 14 14 14 14 15 14 14 14 14 15 15 15 15
17 16 16 15 13 12 12 13 11 11 11 10 9 9 9 8 8 8 8 8 8 9 9 10 10 11 10 11 12 12 13 13 14 15 15 14 14 15 15 15 15 15 15
17 16 16 15 13 12 12 11 10 10 10 10 9 8 8 7 6 7 8 8 9 9 9 10 10 11 11 11 12 12 13 14 14 15 15 15 15 15 15 15 14 15 15
15 15 14 13 13 13 12 11 9 10 10 10 9 8 8 7 6 7 8 9 9 9 10 10 10 10 10 11 12 13 13 14 14 15 15 15 15 15 15 15 15 15 15
13 13 13 12 13 13 12 11 9 9 9 9 9 8 8 8 7 7 7 8 7 8 9 10 10 10 9 10 11 11 12 12 12 14 15 15 14 14 15 16 16 16 16
12 13 13 12 13 13 12 11 9 9 8 9 9 8 8 8 7 7 7 8 7 8 8 8 9 9 10 10 11 12 12 12 12 13 14 14 14 14 14 15 15 16 16
13 12 12 12 11 11 10 9 9 10 9 9 9 8 8 7 7 7 7 8 8 8 7 8 8 9 10 11 12 12 12 13 13 13 13 14 14 14 14 15 14 15 16
13 12 12 12 11 10 9 9 9 9 9 9 8 8 8 7 7 7 7 7 7 7 7 7 7 8 9 10 11 11 11 12 12 13 14 14 15 15 15 15 15 15 16
13 13 13 12 11 9 9 9 8 8 8 8 8 7 8 8 8 8 8 8 7 7 7 7 7 8 8 9 9 10 10 11 11 13 14 15 15 15 15 16 16 16 16
13 13 12 11 10 8 7 8 8 8 8 7 7 8 8 8 7 8 9 8 8 8 8 8 8 9 9 10 10 10 11 11 11 12 13 13 14 15 16 16 17 16 16
13 12 12 11 10 9 8 8 9 8 8 7 7 8 8 8 8 8 8 8 8 9 9 8 8 9 10 10 11 11 11 11 12 12 13 13 14 14 15 15 15 15 15
14 14 12 11 10 9 9 9 10 9 9 9 8 8 8 8 9 9 9 9 9 9 10 9 9 10 10 11 11 11 11 11 12 12 12 13 14 15 15 15 15 15 15
14 15 13 12 12 10 9 9 10 10 10 10 10 10 9 10 10 10 10 10 10 11 11 10 10 11 11 11 10 10 10 11 11 12 12 13 14 15 15 16 16 16 16
14 14 13 13 11 11 11 11 11 11 11 11 11 11 11 11 11 11 11 12 12 12 12 12 12 12 11 11 11 11 11 11 11 12 12 13 14 15 15 16 16 17 17
14 14 14 13 12 12 13 13 12 12 12 12 12 13 13 12 12 12 12 13 13 13 13 14 13 13 13 13 13 13 13 14 13 14 14 15 15 15 16 17 17 17 17
14 15 15 15 13 13 13 13 13 12 12 13 13 14 13 13 13 14 14 14 14 14 14 14 14 14 14 15 15 15 16 16 16 16 17 17 18 18 18 18 18 18 18
16 15 15 15 14 14 14 14 14 13 13 13 13 13 13 14 14 14 14 14 14 14 14 14 14 14 15 16 16 17 17 18 18 18 19 19 19 19 20 20 20 20 20
17 16 16 16 15 15 15 15 15 15 14 14 14 14 15 15 15 15 15 15 15 15 16 15 15 15 16 16 17 17 17 17 17 18 19 20 20 20 21 21 21 21 22
18 18 17 18 17 16 16 16 15 15 15 15 16 16 16 16 16 16 16 16 16 16 16 16 16 16 16 17 17 18 18 18 18 19 19 19 20 21 21 21 21 21 21
18 18 18 18 18 18 17 17 17 16 16 16 17 17 17 17 18 17 17 17 17 17 17 17 17 17 17 17 18 18 18 18 18 19 19 19 20 20 21 21 21 20 20
19 19 19 19 19 18 18 18 18 18 18 17 17 17 17 17 17 17 18 18 18 18 18 18 18 18 18 18 18 19 19 19 18 19 19 20 20 20 19 19 19 20 21
21 20 20 20 19 19 19 19 19 19 19 19 18 18 18 18 18 19 19 18 19 19 19 19 19 19 20 20 19 19 19 20 20 20 20 20 20 19 19 20 20 20 21
22 22 22 21 21 20 19 20 20 20 20 20 20 20 20 20 21 21 20 20 20 21 21 20 20 20 21 20 20 20 20 20 21 21 21 21 21 21 21 21 21 21 22
24 24 23 23 22 22 21 21 21 21 21 21 21 21 21 21 21 20 21 21 22 22 22 21 21 21 21 21 21 21 21 21 21 21 21 21 21 21 21 22 22 22 22
23 23 23 23 23 22 22 22 22 22 22 21 21 21 21 21 21 21 21 22 22 22 22 22 22 22 22 22 22 22 22 22 22 22 22 22 22 22 22 22 23 23 23
Wind_Direction
296 296 292 291 292 295 297 297 299 292 288 293 299 299 297 287 283 277 278 274 262 256 257 252 250 248 249 251 252 248 245 246 247 248 246 247 249 253 258 261 259 258 256
293 293 292 289 288 286 287 291 291 289 291 294 297 299 298 289 283 278 278 272 262 260 257 251 250 249 251 252 252 250 248 250 247 248 249 246 250 255 261 262 261 258 257
297 292 292 290 284 283 283 289 286 288 292 294 300 298 301 292 280 276 277 271 267 265 259 253 251 250 252 251 252 251 249 249 249 250 252 252 250 256 260 261 259 260 261
297 296 291 287 281 280 282 282 284 288 289 290 296 299 302 290 278 279 279 274 269 265 261 257 255 251 249 251 254 255 254 252 252 251 254 256 254 254 258 261 262 263 265
295 295 291 283 277 279 280 278 281 281 286 288 288 289 292 288 281 283 282 282 276 268 264 258 259 255 252 254 256 259 259 258 253 253 256 258 259 257 258 259 262 265 265
292 289 288 282 276 274 274 276 275 280 281 282 281 281 283 281 280 282 287 286 278 274 268 263 258 254 252 256 261 263 263 261 260 257 256 258 258 260 258 259 261 264 264
291 286 287 286 278 270 272 273 273 280 284 277 275 274 275 275 278 281 287 286 278 277 272 268 263 257 255 260 264 266 264 262 262 259 258 258 257 261 261 264 266 266 266
286 286 289 285 276 276 275 271 276 279 275 271 269 272 268 272 273 277 282 281 279 276 270 265 265 263 262 264 266 267 264 265 262 259 259 260 261 261 263 266 266 267 269
283 287 290 284 282 276 274 272 275 270 265 267 270 270 267 266 269 274 282 288 287 274 271 271 264 260 264 265 266 270 267 269 266 264 264 265 264 263 265 266 268 271 273
289 288 288 279 276 275 267 269 271 265 266 262 265 266 260 255 261 270 279 281 281 276 277 275 269 266 267 271 272 275 274 272 270 268 269 270 268 267 268 270 272 273 273
291 291 286 279 272 263 263 267 270 272 268 270 270 266 262 253 260 271 275 278 279 283 284 282 280 278 276 277 278 279 277 277 275 273 274 271 269 267 270 273 273 273 274
287 287 279 276 273 274 272 272 271 272 266 268 273 272 266 260 264 272 276 281 284 286 286 284 284 286 284 282 283 286 282 279 279 277 275 274 274 276 277 279 278 277 277
287 280 272 271 275 278 272 272 269 265 262 264 268 272 273 273 274 276 274 279 282 284 287 286 287 287 287 287 288 289 286 284 283 280 276 275 277 278 279 279 278 279 280
286 280 271 269 271 272 267 264 266 266 265 267 270 270 271 274 275 279 277 277 281 283 286 286 286 287 288 287 288 288 287 285 284 283 278 277 276 278 278 276 276 279 280
276 277 277 273 269 265 265 263 265 266 266 269 271 270 270 271 273 278 279 278 280 281 284 285 284 283 283 284 284 285 286 286 284 282 280 277 276 276 277 278 279 280 281
270 272 274 272 267 262 260 262 263 265 267 269 270 268 266 266 271 274 277 278 280 279 281 281 281 280 279 280 282 283 283 283 281 280 279 277 275 275 275 277 279 281 281
269 271 271 268 267 257 257 263 264 267 264 266 266 269 265 265 269 272 276 277 278 277 277 275 276 278 279 279 280 280 281 282 279 278 278 279 277 277 278 278 279 281 282
265 270 272 269 268 263 262 262 264 267 269 269 266 269 269 267 271 272 274 274 276 276 277 276 277 280 281 282 282 281 282 282 281 279 279 280 279 279 279 280 281 281 282
265 267 270 271 268 267 266 267 268 270 270 269 266 269 272 274 278 274 273 272 275 276 277 279 280 282 284 285 285 284 284 282 282 283 284 283 282 281 281 281 281 281 281
261 262 266 269 269 267 267 267 265 267 267 265 265 269 273 274 276 275 275 273 274 277 277 277 279 283 285 286 287 285 283 283 284 286 287 287 287 285 283 282 282 283 283
260 261 265 267 266 265 266 267 269 270 271 270 269 272 275 276 274 275 276 274 276 278 276 275 278 280 282 284 286 287 286 286 287 287 288 287 289 289 287 283 282 283 282
261 263 266 266 264 263 266 267 267 269 270 272 273 275 274 273 274 273 275 275 275 277 277 276 277 279 281 283 284 286 288 288 289 290 289 288 288 288 286 284 284 284 282
260 262 264 262 262 264 266 267 268 268 269 271 272 275 275 274 271 271 274 276 275 275 277 275 275 278 280 282 284 284 286 288 289 290 291 291 291 289 287 286 285 285 285
260 261 261 261 263 265 266 269 270 270 269 271 273 275 272 270 270 271 274 277 278 277 277 278 278 279 280 281 282 284 285 287 289 289 291 290 289 288 287 287 286 287 287
261 261 262 262 263 265 267 269 271 272 272 272 273 273 273 273 273 274 276 278 279 278 277 277 276 277 279 280 281 282 284 286 287 289 290 291 291 291 289 288 286 286 287
261 262 263 264 265 265 267 269 271 270 271 272 272 272 273 272 273 275 277 279 279 277 275 275 275 277 278 278 279 280 281 283 285 286 289 290 290 289 288 287 286 286 286
Height
5846 5846 5845 5844 5843 5842 5841 5839 5838 5838 5838 5836 5835 5835 5834 5834 5833 5833 5833 5833 5833 5833 5833 5834 5834 5834 5834 5835 5835 5836 5836 5837 5837 5838 5838 5839 5839 5839 5839 5839 5839 5839 5839
5843 5842 5841 5840 5839 5838 5838 5837 5836 5836 5835 5834 5834 5833 5832 5831 5830 5830 5830 5830 5830 5830 5831 5831 5831 5831 5831 5832 5832 5833 5833 5833 5834 5834 5834 5835 5836 5835 5835 5835 5834 5835 5835
5839 5838 5837 5836 5835 5835 5835 5834 5833 5833 5832 5831 5831 5830 5829 5828 5828 5828 5828 5828 5827 5828 5828 5828 5828 5828 5828 5829 5829 5830 5830 5830 5830 5831 5831 5831 5832 5832 5832 5831 5831 5831 5830
5834 5834 5833 5832 5832 5831 5831 5830 5830 5830 5829 5829 5828 5828 5827 5826 5826 5826 5826 5825 5825 5825 5824 5825 5825 5825 5825 5825 5826 5826 5827 5827 5827 5827 5827 5828 5828 5828 5828 5827 5827 5827 5827
5831 5830 5829 5829 5828 5828 5827 5827 5826 5827 5826 5826 5826 5826 5825 5824 5824 5824 5823 5823 5822 5822 5822 5822 5822 5822 5822 5822 5822 5822 5823 5823 5823 5823 5824 5824 5824 5824 5824 5824 5824 5823 5823
5827 5826 5826 5826 5825 5825 5824 5824 5823 5824 5823 5823 5823 5823 5823 5822 5822 5822 5821 5821 5820 5819 5819 5818 5818 5818 5818 5819 5819 5819 5819 5819 5819 5819 5820 5820 5820 5819 5819 5820 5819 5819 5819
5823 5823 5823 5823 5822 5822 5821 5821 5821 5821 5821 5821 5821 5821 5820 5820 5820 5820 5819 5819 5818 5817 5816 5815 5815 5815 5815 5815 5816 5815 5815 5815 5815 5815 5816 5816 5816 5816 5816 5816 5815 5815 5814
5820 5820 5820 5819 5818 5819 5819 5819 5818 5818 5819 5819 5818 5818 5818 5818 5818 5817 5817 5816 5815 5814 5813 5813 5812 5812 5812 5812 5812 5812 5812 5811 5811 5811 5812 5812 5812 5811 5811 5811 5811 5811 5810
5817 5816 5816 5816 5815 5816 5816 5816 5816 5816 5816 5816 5816 5815 5816 5816 5816 5815 5815 5814 5813 5812 5811 5810 5810 5809 5809 5809 5809 5808 5808 5808 5807 5808 5808 5808 5807 5807 5807 5807 5807 5807 5806
5814 5813 5813 5813 5813 5813 5813 5813 5813 5813 5813 5813 5813 5813 5813 5813 5813 5813 5812 5812 5811 5810 5809 5808 5807 5807 5806 5806 5806 5805 5805 5804 5804 5804 5804 5804 5804 5803 5803 5803 5802 5802 5801
5811 5810 5809 5809 5810 5810 5811 5811 5810 5810 5810 5811 5811 5811 5810 5810 5810 5810 5809 5809 5808 5808 5807 5806 5805 5805 5804 5804 5803 5802 5802 5801 5801 5800 5800 5800 5800 5799 5799 5799 5798 5797 5797
5807 5807 5806 5806 5806 5807 5808 5808 5808 5808 5808 5809 5809 5808 5808 5808 5808 5807 5807 5806 5806 5805 5804 5804 5803 5802 5802 5801 5800 5799 5798 5798 5797 5797 5797 5796 5796 5795 5795 5794 5793 5793 5792
5804 5803 5803 5804 5804 5804 5805 5805 5805 5805 5806 5806 5805 5805 5805 5805 5804 5804 5804 5804 5803 5802 5802 5801 5800 5799 5799 5798 5797 5796 5795 5795 5794 5793 5793 5792 5792 5791 5791 5790 5789 5788 5788
5800 5800 5800 5801 5801 5801 5801 5801 5802 5803 5803 5803 5802 5802 5802 5802 5801 5801 5801 5800 5800 5799 5799 5798 5797 5796 5796 5795 5794 5793 5792 5791 5790 5789 5789 5788 5788 5787 5786 5785 5784 5784 5783
5796 5796 5796 5797 5797 5797 5797 5798 5799 5799 5799 5799 5799 5799 5799 5798 5798 5798 5797 5797 5796 5796 5795 5795 5794 5793 5793 5792 5791 5790 5789 5788 5787 5786 5785 5784 5783 5782 5781 5780 5779 5778 5777
5791 5792 5793 5793 5793 5794 5794 5795 5795 5796 5796 5796 5795 5795 5795 5795 5795 5794 5794 5793 5793 5792 5791 5791 5790 5789 5789 5788 5788 5787 5786 5784 5783 5782 5781 5780 5779 5778 5777 5775 5774 5773 5772
5787 5788 5788 5789 5789 5790 5790 5791 5791 5791 5791 5792 5792 5791 5791 5791 5790 5790 5789 5789 5788 5788 5787 5786 5786 5785 5784 5784 5783 5782 5781 5780 5778 5777 5776 5775 5774 5772 5771 5770 5769 5768 5767
5783 5783 5784 5784 5785 5785 5786 5786 5786 5786 5787 5787 5787 5787 5787 5786 5786 5786 5785 5784 5784 5783 5783 5782 5781 5781 5780 5779 5778 5777 5775 5774 5773 5771 5770 5769 5768 5766 5765 5764 5763 5762 5760
5778 5778 5779 5780 5780 5781 5781 5782 5782 5782 5782 5782 5783 5782 5782 5782 5782 5781 5781 5780 5779 5779 5778 5777 5776 5776 5775 5774 5772 5771 5770 5769 5767 5766 5764 5763 5762 5760 5759 5758 5756 5755 5754
5772 5773 5774 5774 5775 5775 5776 5777 5777 5778 5777 5777 5778 5778 5778 5778 5777 5776 5776 5775 5774 5773 5773 5772 5772 5771 5770 5769 5767 5766 5765 5763 5762 5760 5758 5757 5755 5754 5752 5751 5750 5748 5747
5767 5767 5769 5769 5770 5771 5771 5771 5772 5772 5772 5772 5773 5773 5772 5772 5772 5772 5771 5770 5769 5768 5768 5767 5767 5766 5765 5763 5762 5761 5760 5758 5756 5754 5753 5751 5749 5747 5746 5744 5743 5742 5741
5761 5762 5763 5764 5765 5765 5766 5766 5767 5767 5767 5767 5767 5767 5767 5766 5766 5766 5765 5764 5764 5763 5762 5762 5761 5760 5759 5758 5756 5755 5754 5752 5751 5749 5747 5745 5743 5741 5740 5738 5737 5735 5734
5755 5756 5757 5758 5759 5760 5760 5761 5761 5761 5761 5762 5762 5761 5761 5760 5760 5760 5759 5758 5757 5757 5756 5755 5755 5754 5753 5751 5750 5749 5748 5746 5744 5743 5741 5738 5736 5735 5733 5731 5730 5729 5728
5748 5750 5751 5752 5753 5754 5754 5754 5754 5755 5755 5755 5755 5755 5753 5753 5753 5753 5753 5752 5751 5750 5749 5748 5747 5747 5746 5745 5743 5742 5741 5740 5738 5736 5734 5732 5730 5728 5727 5725 5723 5722 5721
5741 5743 5744 5745 5746 5746 5747 5748 5748 5748 5748 5748 5748 5747 5746 5746 5746 5746 5746 5745 5744 5743 5742 5741 5740 5740 5739 5738 5737 5736 5734 5733 5731 5729 5728 5726 5724 5722 5720 5718 5717 5715 5714
5734 5735 5736 5737 5738 5739 5740 5740 5741 5741 5741 5741 5741 5741 5740 5740 5739 5739 5739 5737 5737 5736 5735 5734 5733 5732 5732 5731 5730 5729 5727 5726 5724 5723 5721 5719 5717 5715 5713 5711 5710 5708 5706